Location: Coll
(42.4728°N, 0.7714°E)
Time: 12:53:28
(UTC+00:00)

ADEOS Rocket - Pass Details

Date: 23 October 2020
Orbit: 859 x 1306 km, 98.7° (Epoch: 30 November)

Event Time Altitude Azimuth Distance (km) Brightness Sun altitude
Rises 03:27:28 0° 149° (SSE) 3,482 6.1 -32.2°
Reaches altitude 10° 03:29:55 10° 144° (SE) 2,519 5.4 -31.8°
Maximum altitude 03:35:14 50° 70° (ENE) 1,084 3.5 -30.8°
Drops below altitude 10° 03:40:32 10° 356° (N) 2,522 5.2 -29.9°
Sets 03:43:00 0° 352° (N) 3,487 6.0 -29.5°
